FW3102 Weather Reports


time (UTC)temp
C
wind
direction
speed
KPH
gust
KPH
rain 1hr
cm
rain 24hr
cm
rain mn
cm
humidity
%
barometer
mb
20260906233050 16 47 0.0 3.2 0.00 0.00 0.00 80 1013.9
20260906231548 16 49 0.0 1.6 0.00 0.00 0.00 80 1014.1
20260906230048 16 49 0.0 3.2 0.00 0.00 0.00 80 1014.0
20260906224554 16 48 0.0 3.2 0.00 0.00 0.00 80 1014.0
20260906223044 16 47 0.0 1.6 0.00 0.00 0.00 81 1014.1
20260906221545 15 49 0.0 4.8 0.00 0.00 0.00 83 1014.3
20260906220041 15 52 0.0 0.0 0.00 0.00 0.00 88 1014.4
20260906214546 15 51 0.0 6.4 0.00 0.00 0.00 89 1014.4
20260906213040 14 49 0.0 3.2 0.00 0.00 0.00 90 1014.6
20260906211545 13 47 0.0 1.6 0.00 0.00 0.00 92 1014.6
20260906210044 13 46 0.0 1.6 0.00 0.00 0.00 92 1014.7
20260906204535 13 46 0.0 3.2 0.00 0.00 0.00 92 1014.9
20260906203032 14 47 0.0 3.2 0.00 0.00 0.00 89 1015.0
20260906201531 14 49 0.0 0.0 0.00 0.00 0.00 88 1015.2
20260906200029 15 49 0.0 1.6 0.00 0.00 0.00 87 1015.1
20260906194528 15 49 0.0 1.6 0.00 0.00 0.00 85 1015.4
20260906193028 15 48 0.0 4.8 0.00 0.00 0.00 84 1015.5
20260906191539 15 48 0.0 1.6 0.00 0.00 0.00 83 1015.5
20260906190034 15 49 0.0 3.2 0.00 0.00 0.00 83 1015.8
20260906184522 15 48 0.0 3.2 0.00 0.00 0.00 84 1015.9
20260906183024 14 50 0.0 4.8 0.00 0.00 0.00 84 1016.0
20260906181532 14 49 1.6 6.4 0.00 0.00 0.00 84 1015.8
20260906180019 14 24 0.0 4.8 0.00 0.03 0.00 83 1016.1
20260906174519 15 163 0.0 8.0 0.00 0.03 0.00 81 1016.3
20260906173018 15 36 0.0 6.4 0.00 0.03 0.00 80 1016.0
20260906171518 16 306 0.0 4.8 0.00 0.03 0.00 79 1016.1
20260906170017 16 122 0.0 0.0 0.00 0.03 0.00 82 1016.2
20260906164516 16 87 0.0 0.0 0.00 0.03 0.00 79 1016.3
20260906163022 16 87 0.0 0.0 0.00 0.03 0.00 79 1016.0
20260906161512 16 86 0.0 0.0 0.00 0.03 0.00 81 1016.3
20260906160026 14 115 0.0 1.6 0.00 0.03 0.00 86 1016.4
20260906154505 13 131 0.0 1.6 0.00 0.03 0.00 89 1016.5
20260906153102 13 131 0.0 3.2 0.00 0.03 0.00 88 1016.5
20260906151602 13 130 0.0 0.0 0.00 0.03 0.00 92 1016.8
20260906150052 12 141 0.0 1.6 0.00 0.03 0.00 94 1016.8
20260906144550 12 133 0.0 1.6 0.00 0.03 0.00 94 1017.0
20260906143107 12 133 0.0 0.0 0.00 0.03 0.00 94 1017.0
20260906141551 12 133 0.0 0.0 0.00 0.03 0.00 94 1017.1
20260906140048 12 133 0.0 1.6 0.00 0.03 0.00 94 1017.1
20260906134551 11 133 0.0 1.6 0.00 0.03 0.00 94 1017.2
20260906133050 11 132 0.0 0.0 0.00 0.03 0.00 94 1017.3
20260906131554 11 133 0.0 0.0 0.00 0.03 0.00 94 1017.3
20260906130047 11 133 0.0 1.6 0.00 0.03 0.00 94 1017.5
20260906124547 11 133 0.0 1.6 0.00 0.03 0.00 94 1017.6
20260906123044 11 133 0.0 1.6 0.00 0.03 0.00 94 1017.4
20260906121545 11 129 0.0 0.0 0.00 0.03 0.00 94 1017.3
20260906120043 11 129 0.0 0.0 0.00 0.03 0.00 94 1017.4
20260906114542 11 129 0.0 0.0 0.00 0.03 0.00 94 1017.2
20260906113046 11 129 0.0 0.0 0.00 0.03 0.00 94 1017.3
20260906111540 11 129 0.0 0.0 0.00 0.03 0.00 94 1017.6
20260906110037 11 129 0.0 0.0 0.00 0.03 0.00 94 1017.8
20260906104537 11 129 0.0 0.0 0.00 0.03 0.00 94 1017.9
20260906103036 11 129 0.0 0.0 0.00 0.03 0.00 94 1018.3
20260906101534 11 129 0.0 0.0 0.00 0.03 0.00 94 1018.3
20260906100034 11 129 0.0 0.0 0.00 0.05 0.00 94 1018.3
20260906094536 11 129 0.0 0.0 0.00 0.05 0.00 94 1018.2
20260906093033 11 129 0.0 0.0 0.00 0.05 0.00 94 1018.3
20260906091534 11 129 0.0 0.0 0.00 0.05 0.00 94 1018.3
20260906090028 11 129 0.0 0.0 0.00 0.05 0.00 93 1018.7
20260906084529 11 130 0.0 0.0 0.00 0.05 0.00 93 1018.9
20260906083027 11 128 0.0 0.0 0.00 0.05 0.00 92 1019.1
20260906081534 11 129 0.0 0.0 0.00 0.05 0.00 91 1019.1
20260906080024 11 128 0.0 0.0 0.00 0.05 0.00 90 1019.1
20260906074523 11 129 0.0 1.6 0.00 0.05 0.00 90 1019.0
20260906073022 11 123 0.0 0.0 0.00 0.05 0.00 90 1019.0
20260906071521 11 123 0.0 1.6 0.00 0.05 0.00 90 1019.2
20260906070021 11 117 0.0 1.6 0.00 0.05 0.00 90 1019.3
20260906064519 11 113 0.0 0.0 0.00 0.05 0.00 90 1019.3
20260906063021 11 113 0.0 1.6 0.00 0.05 0.00 89 1019.3
20260906061518 11 127 0.0 1.6 0.00 0.05 0.00 89 1019.3
20260906060015 12 116 0.0 3.2 0.00 0.05 0.05 89 1019.3
20260906054516 12 117 0.0 1.6 0.00 0.05 0.05 89 1019.4
20260906053014 12 127 0.0 1.6 0.00 0.05 0.05 88 1019.4
20260906051514 12 82 0.0 0.0 0.00 0.05 0.05 88 1019.4
20260906050040 12 66 0.0 1.6 0.00 0.05 0.05 88 1019.4
20260906044513 12 70 0.0 0.0 0.00 0.05 0.05 88 1019.3
20260906043012 12 69 0.0 0.0 0.00 0.05 0.05 87 1019.1
20260906041516 12 69 0.0 0.0 0.00 0.05 0.05 87 1019.0
20260906040011 12 69 0.0 0.0 0.00 0.05 0.05 87 1019.2
20260906034512 12 69 0.0 0.0 0.00 0.05 0.05 87 1019.2
20260906033011 12 69 0.0 0.0 0.00 0.05 0.05 87 1019.1
20260906031509 12 69 0.0 0.0 0.00 0.05 0.05 87 1019.2
20260906030008 12 69 0.0 0.0 0.00 0.05 0.05 87 1019.2
20260906024510 12 69 0.0 0.0 0.00 0.05 0.05 87 1019.1
20260906023008 12 69 0.0 0.0 0.00 0.05 0.05 87 1019.0
20260906021506 12 69 0.0 0.0 0.00 0.05 0.05 86 1019.0
20260906020005 12 65 0.0 0.0 0.00 0.05 0.05 86 1018.7
20260906014508 12 67 0.0 0.0 0.00 0.05 0.05 86 1018.8
20260906013004 12 67 0.0 0.0 0.00 0.05 0.05 86 1018.6
20260906011501 12 68 0.0 0.0 0.00 0.05 0.05 85 1018.5
20260906010100 12 67 0.0 0.0 0.00 0.05 0.05 85 1018.5
20260906004601 12 67 0.0 0.0 0.00 0.05 0.05 85 1018.5
20260906003107 13 66 0.0 0.0 0.00 0.05 0.05 84 1018.6
20260906001559 12 68 0.0 0.0 0.00 0.05 0.05 84 1018.5
20260906000058 13 65 0.0 0.0 0.00 0.05 0.05 84 1018.3
20260905234613 13 66 0.0 0.0 0.00 0.05 0.05 84 1018.2